User: anonymous   Login
Location: Caltech
(34.1382°N, 118.1253°W)
Time: 00:14:25
(UTC-07:00)
Language:

ITAMSAT 1 - Orbit

View from above orbital plane
View from above orbital plane
View from above satellite
View from above satellite

Ground track
Ground track

The orbit data is extracted from the following two-line orbital elements,

1 22826U 93061D   18142.91490344 +.00000005 +00000-0 +19582-4 0  9993
2 22826 098.8548 118.6159 0009862 054.2921 305.9177 14.30361909285893
Epoch (UTC): 22 May 2018 21:57:27
Eccentricity: 0.0009862
inclination: 98.8548°
perigee height: 783 km
apogee height: 797 km
right ascension of ascending node: 118.6159°
argument of perigee: 54.2921°
revolutions per day: 14.30361909
mean anomaly at epoch: 305.9177°
orbit number at epoch: 28589

The dashed part of the orbit path shows where the satellite is in the earth's shadow,  

DLR